TimeMST,TemperatureF,Dew PointF,Humidity,Sea Level PressureIn,VisibilityMPH,Wind Direction,Wind SpeedMPH,Gust SpeedMPH,PrecipitationIn,Events,Conditions,WindDirDegrees,DateUTC
12:15 AM,33.8,26.6,75,30.32,10.0,SSW,6.9,-,N/A,,Clear,210,2012-12-04 07:15:00
12:35 AM,33.8,28.4,81,30.32,10.0,Calm,Calm,-,N/A,,Clear,0,2012-12-04 07:35:00
12:55 AM,35.6,26.6,70,30.32,10.0,SE,3.5,-,N/A,,Clear,130,2012-12-04 07:55:00
1:55 AM,30.2,26.6,86,30.32,10.0,Calm,Calm,-,N/A,,Clear,0,2012-12-04 08:55:00
2:15 AM,28.4,26.6,93,30.32,10.0,Calm,Calm,-,N/A,,Clear,0,2012-12-04 09:15:00
2:35 AM,28.4,24.8,86,30.32,10.0,SSE,3.5,-,N/A,,Clear,150,2012-12-04 09:35:00
2:55 AM,33.8,28.4,81,30.33,10.0,Calm,Calm,-,N/A,,Partly Cloudy,0,2012-12-04 09:55:00
3:15 AM,30.2,28.4,93,30.33,10.0,Calm,Calm,-,N/A,,Mostly Cloudy,0,2012-12-04 10:15:00
3:35 AM,30.2,28.4,93,30.33,10.0,East,5.8,-,N/A,,Mostly Cloudy,80,2012-12-04 10:35:00
3:55 AM,30.2,28.4,93,30.33,10.0,Calm,Calm,-,N/A,,Overcast,0,2012-12-04 10:55:00
4:15 AM,32.0,26.6,80,30.33,10.0,Calm,Calm,-,N/A,,Overcast,0,2012-12-04 11:15:00
4:35 AM,33.8,28.4,81,30.33,10.0,South,4.6,-,N/A,,Overcast,190,2012-12-04 11:35:00
5:15 AM,33.8,28.4,81,30.34,10.0,Calm,Calm,-,N/A,,Overcast,0,2012-12-04 12:15:00
5:35 AM,33.8,28.4,81,30.33,10.0,ENE,5.8,-,N/A,,Mostly Cloudy,60,2012-12-04 12:35:00
5:55 AM,33.8,28.4,81,30.34,10.0,ESE,9.2,-,N/A,,Scattered Clouds,120,2012-12-04 12:55:00
6:15 AM,35.6,28.4,75,30.34,10.0,SSE,6.9,-,N/A,,Mostly Cloudy,150,2012-12-04 13:15:00
6:35 AM,35.6,28.4,75,30.33,10.0,East,5.8,-,N/A,,Scattered Clouds,100,2012-12-04 13:35:00
6:47 AM,33.8,28.4,81,30.34,15.0,East,4.6,-,N/A,,Mostly Cloudy,100,2012-12-04 13:47:00
7:55 AM,35.6,28.4,75,30.36,15.0,SE,6.9,-,N/A,,Mostly Cloudy,140,2012-12-04 14:55:00
8:55 AM,37.4,30.2,75,30.36,15.0,East,3.5,-,N/A,,Mostly Cloudy,100,2012-12-04 15:55:00
9:51 AM,39.2,30.2,70,30.37,15.0,NNE,5.8,-,N/A,,Mostly Cloudy,30,2012-12-04 16:51:00
10:47 AM,42.8,30.2,61,30.39,15.0,Calm,Calm,-,N/A,,Mostly Cloudy,0,2012-12-04 17:47:00
1:50 PM,46.4,32.0,57,30.32,15.0,Variable,4.6,-,N/A,,Overcast,0,2012-12-04 20:50:00
2:50 PM,44.6,37.4,76,30.32,10.0,Variable,5.8,-,N/A,,Overcast,0,2012-12-04 21:50:00
3:50 PM,46.4,37.4,71,30.31,10.0,Variable,5.8,-,N/A,,Overcast,0,2012-12-04 22:50:00
4:47 PM,44.6,35.6,71,30.30,10.0,Variable,4.6,-,N/A,,Mostly Cloudy,0,2012-12-04 23:47:00
5:48 PM,42.8,37.4,81,30.31,15.0,Calm,Calm,-,N/A,,Mostly Cloudy,0,2012-12-05 00:48:00
6:50 PM,42.8,35.6,76,30.29,15.0,Calm,Calm,-,N/A,,Scattered Clouds,0,2012-12-05 01:50:00
7:52 PM,41.0,35.6,81,30.27,15.0,Calm,Calm,-,N/A,,Scattered Clouds,0,2012-12-05 02:52:00
8:52 PM,42.8,35.6,76,30.22,15.0,Calm,Calm,-,N/A,,Scattered Clouds,0,2012-12-05 03:52:00
8:55 PM,42.8,35.6,76,30.22,10.0,Calm,Calm,-,N/A,,Clear,0,2012-12-05 03:55:00
9:15 PM,41.0,37.4,87,30.22,10.0,West,6.9,-,N/A,,Clear,280,2012-12-05 04:15:00
9:35 PM,44.6,35.6,71,30.23,10.0,SSW,6.9,-,N/A,,Clear,200,2012-12-05 04:35:00
10:15 PM,44.6,35.6,71,30.23,10.0,SSE,4.6,-,N/A,,Clear,160,2012-12-05 05:15:00
10:35 PM,42.8,35.6,76,30.24,10.0,SSW,9.2,-,N/A,,Clear,200,2012-12-05 05:35:00
11:15 PM,39.2,33.8,81,30.23,10.0,North,4.6,-,N/A,,Partly Cloudy,350,2012-12-05 06:15:00
11:35 PM,41.0,33.8,76,30.23,10.0,Calm,Calm,-,N/A,,Clear,0,2012-12-05 06:35:00
11:55 PM,41.0,35.6,81,30.23,10.0,Calm,Calm,-,N/A,,Clear,0,2012-12-05 06:55:00